| time (UTC) | temp F | wind direction | speed knots | gust knots | rain 1hr in | rain 24hr in | rain mn in | humidity % | barometer mb |
| 20260902091533 | 76 | 354 | 0.0 | 0.0 | 0.00 | 0.00 | 0.00 | 54 | 1020.3 |
| 20260902090030 | 74 | 354 | 0.0 | 0.0 | 0.00 | 0.00 | 0.00 | 57 | 1020.2 |
| 20260902084527 | 73 | 354 | 0.0 | 0.0 | 0.00 | 0.00 | 0.00 | 60 | 1020.1 |
| 20260902083022 | 71 | 354 | 0.0 | 0.0 | 0.00 | 0.00 | 0.00 | 64 | 1020.4 |
| 20260902081518 | 70 | 352 | 0.0 | 0.0 | 0.00 | 0.00 | 0.00 | 66 | 1020.4 |
| 20260902080022 | 70 | 352 | 0.0 | 0.0 | 0.00 | 0.00 | 0.00 | 66 | 1020.4 |
| 20260902074516 | 70 | 352 | 0.0 | 7.0 | 0.00 | 0.00 | 0.00 | 67 | 1020.4 |
| 20260902073012 | 69 | 352 | 0.0 | 0.0 | 0.00 | 0.00 | 0.00 | 69 | 1020.1 |
| 20260902071508 | 67 | 352 | 0.0 | 0.0 | 0.00 | 0.00 | 0.00 | 70 | 1019.9 |
| 20260902070007 | 66 | 352 | 0.0 | 0.0 | 0.00 | 0.00 | 0.00 | 72 | 1019.7 |
| 20260902064511 | 65 | 351 | 3.5 | 7.8 | 0.00 | 0.01 | 0.00 | 77 | 1019.8 |
| 20260902063003 | 64 | 349 | 0.0 | 0.0 | 0.00 | 0.01 | 0.00 | 78 | 1019.7 |
| 20260902061502 | 63 | 349 | 0.0 | 0.0 | 0.00 | 0.01 | 0.00 | 79 | 1019.9 |
| 20260902060000 | 62 | 349 | 0.0 | 0.0 | 0.00 | 0.01 | 0.00 | 79 | 1019.8 |
| 20260902054559 | 62 | 345 | 0.0 | 0.0 | 0.00 | 0.01 | 0.00 | 79 | 1019.8 |
| 20260902053057 | 62 | 345 | 0.0 | 0.0 | 0.00 | 0.01 | 0.00 | 78 | 1019.7 |
| 20260902051604 | 62 | 344 | 0.0 | 0.0 | 0.00 | 0.01 | 0.00 | 79 | 1019.7 |
| 20260902050051 | 62 | 348 | 0.0 | 0.0 | 0.00 | 0.01 | 0.00 | 78 | 1019.7 |
| 20260902044550 | 61 | 348 | 0.0 | 0.0 | 0.00 | 0.01 | 0.00 | 78 | 1019.8 |
| 20260902043053 | 61 | 348 | 0.0 | 0.0 | 0.00 | 0.01 | 0.00 | 78 | 1019.6 |
| 20260902041548 | 61 | 348 | 0.0 | 0.0 | 0.00 | 0.01 | 0.00 | 76 | 1019.6 |
| 20260902040047 | 62 | 348 | 0.0 | 0.0 | 0.00 | 0.01 | 0.00 | 76 | 1019.5 |
| 20260902034547 | 62 | 348 | 0.0 | 0.0 | 0.00 | 0.01 | 0.00 | 75 | 1019.6 |
| 20260902033046 | 62 | 348 | 0.0 | 0.0 | 0.00 | 0.01 | 0.00 | 75 | 1019.6 |
| 20260902031546 | 62 | 348 | 0.0 | 0.0 | 0.00 | 0.01 | 0.00 | 76 | 1019.5 |
| 20260902030045 | 62 | 348 | 0.0 | 0.0 | 0.00 | 0.01 | 0.00 | 76 | 1019.5 |
| 20260902024545 | 62 | 348 | 0.0 | 0.0 | 0.00 | 0.01 | 0.00 | 74 | 1019.4 |
| 20260902023046 | 61 | 348 | 0.0 | 0.0 | 0.00 | 0.01 | 0.00 | 75 | 1019.4 |
| 20260902021546 | 62 | 348 | 0.0 | 0.0 | 0.00 | 0.01 | 0.00 | 76 | 1019.5 |
| 20260902020057 | 62 | 348 | 0.0 | 0.0 | 0.00 | 0.01 | 0.00 | 75 | 1019.4 |
| 20260902014549 | 62 | 348 | 0.0 | 0.0 | 0.00 | 0.01 | 0.00 | 75 | 1019.5 |
| 20260902013039 | 62 | 348 | 0.0 | 0.0 | 0.00 | 0.01 | 0.00 | 75 | 1019.5 |
| 20260902011537 | 62 | 348 | 0.0 | 0.0 | 0.00 | 0.01 | 0.00 | 74 | 1019.5 |
| 20260902010035 | 63 | 348 | 0.0 | 0.0 | 0.00 | 0.01 | 0.00 | 72 | 1019.6 |
| 20260902004532 | 63 | 348 | 0.0 | 0.0 | 0.00 | 0.01 | 0.00 | 72 | 1019.6 |
| 20260902003033 | 64 | 348 | 0.0 | 0.0 | 0.00 | 0.01 | 0.00 | 69 | 1019.8 |
| 20260902001530 | 64 | 348 | 0.0 | 0.0 | 0.00 | 0.01 | 0.00 | 68 | 1019.7 |
| 20260902000039 | 64 | 348 | 0.0 | 0.0 | 0.00 | 0.01 | 0.00 | 68 | 1019.7 |
| 20260901234546 | 65 | 348 | 0.0 | 0.0 | 0.00 | 0.01 | 0.00 | 67 | 1019.7 |
| 20260901233025 | 65 | 348 | 0.0 | 0.0 | 0.00 | 0.01 | 0.00 | 66 | 1019.7 |
| 20260901231527 | 65 | 348 | 0.0 | 0.0 | 0.00 | 0.01 | 0.00 | 66 | 1019.7 |
| 20260901230023 | 65 | 348 | 0.0 | 9.6 | 0.00 | 0.01 | 0.00 | 65 | 1019.8 |
| 20260901224521 | 66 | 348 | 0.9 | 9.6 | 0.00 | 0.11 | 0.00 | 65 | 1019.8 |
| 20260901223019 | 66 | 348 | 0.0 | 7.8 | 0.00 | 0.11 | 0.00 | 64 | 1019.6 |
| 20260901221540 | 66 | 348 | 0.0 | 0.0 | 0.00 | 0.11 | 0.00 | 64 | 1019.6 |
| 20260901220015 | 67 | 348 | 0.0 | 0.0 | 0.00 | 0.11 | 0.00 | 63 | 1019.6 |
| 20260901214515 | 67 | 348 | 0.0 | 0.0 | 0.00 | 0.21 | 0.11 | 61 | 1019.5 |
| 20260901213013 | 68 | 348 | 0.0 | 0.0 | 0.00 | 0.21 | 0.11 | 61 | 1019.5 |
| 20260901211519 | 68 | 348 | 0.0 | 0.0 | 0.00 | 0.21 | 0.11 | 59 | 1019.4 |
| 20260901210112 | 69 | 348 | 0.0 | 0.0 | 0.00 | 0.21 | 0.11 | 58 | 1019.4 |
| 20260901204515 | 69 | 348 | 0.0 | 0.0 | 0.00 | 0.23 | 0.11 | 57 | 1019.2 |
| 20260901203016 | 70 | 348 | 0.0 | 0.0 | 0.00 | 0.23 | 0.11 | 55 | 1019.2 |
| 20260901201529 | 70 | 348 | 0.0 | 0.0 | 0.00 | 0.23 | 0.11 | 54 | 1019.1 |
| 20260901200010 | 71 | 348 | 0.0 | 0.0 | 0.00 | 0.23 | 0.11 | 53 | 1019.2 |
| 20260901194510 | 72 | 348 | 0.0 | 0.0 | 0.00 | 0.23 | 0.11 | 51 | 1019.0 |
| 20260901193009 | 73 | 348 | 0.0 | 0.0 | 0.00 | 0.23 | 0.11 | 47 | 1018.9 |
| 20260901191512 | 74 | 348 | 0.0 | 0.0 | 0.00 | 0.23 | 0.11 | 46 | 1018.9 |
| 20260901190011 | 74 | 348 | 0.0 | 0.0 | 0.00 | 0.23 | 0.11 | 46 | 1018.8 |
| 20260901184508 | 75 | 348 | 0.0 | 0.0 | 0.00 | 0.23 | 0.11 | 46 | 1018.7 |
| 20260901183007 | 75 | 348 | 0.0 | 0.0 | 0.00 | 0.23 | 0.11 | 44 | 1018.5 |
| 20260901181509 | 76 | 348 | 0.0 | 0.0 | 0.00 | 0.23 | 0.11 | 44 | 1018.4 |
| 20260901180007 | 76 | 348 | 0.0 | 0.0 | 0.00 | 0.23 | 0.11 | 42 | 1018.2 |
| 20260901174509 | 77 | 348 | 0.0 | 11.3 | 0.00 | 0.23 | 0.11 | 41 | 1017.9 |
| 20260901173005 | 78 | 348 | 5.2 | 13.0 | 0.00 | 0.23 | 0.11 | 41 | 1017.7 |
| 20260901171505 | 79 | 348 | 2.6 | 18.2 | 0.00 | 0.23 | 0.11 | 39 | 1017.7 |
| 20260901170009 | 79 | 333 | 8.7 | 15.6 | 0.00 | 0.23 | 0.11 | 39 | 1017.7 |
| 20260901164504 | 80 | 334 | 9.6 | 20.9 | 0.00 | 0.23 | 0.11 | 39 | 1017.6 |
| 20260901163003 | 80 | 317 | 13.9 | 26.1 | 0.00 | 0.23 | 0.11 | 40 | 1017.5 |
| 20260901161502 | 80 | 333 | 17.4 | 28.7 | 0.00 | 0.23 | 0.11 | 39 | 1017.6 |
| 20260901160004 | 80 | 317 | 10.4 | 27.8 | 0.00 | 0.23 | 0.11 | 39 | 1017.6 |
| 20260901154501 | 81 | 346 | 15.6 | 28.7 | 0.00 | 0.23 | 0.11 | 39 | 1017.7 |
| 20260901153002 | 81 | 310 | 18.2 | 32.2 | 0.00 | 0.23 | 0.11 | 38 | 1017.7 |
| 20260901151600 | 81 | 348 | 10.4 | 22.6 | 0.00 | 0.23 | 0.11 | 39 | 1017.6 |
| 20260901150104 | 81 | 341 | 13.9 | 29.5 | 0.00 | 0.23 | 0.11 | 40 | 1017.7 |
| 20260901144559 | 82 | 321 | 4.3 | 24.3 | 0.00 | 0.23 | 0.11 | 40 | 1017.7 |
| 20260901143158 | 82 | 327 | 15.6 | 29.5 | 0.00 | 0.23 | 0.11 | 38 | 1017.7 |
| 20260901141559 | 81 | 344 | 4.3 | 28.7 | 0.00 | 0.23 | 0.11 | 40 | 1017.8 |
| 20260901140055 | 81 | 323 | 14.8 | 31.3 | 0.00 | 0.23 | 0.11 | 40 | 1017.9 |
| 20260901134611 | 81 | 13 | 13.0 | 22.6 | 0.00 | 0.23 | 0.11 | 40 | 1017.9 |
| 20260901133051 | 81 | 336 | 15.6 | 26.9 | 0.00 | 0.23 | 0.11 | 41 | 1018.0 |
| 20260901131550 | 80 | 351 | 10.4 | 26.1 | 0.00 | 0.23 | 0.11 | 43 | 1018.2 |
| 20260901130057 | 80 | 354 | 14.8 | 27.8 | 0.00 | 0.23 | 0.11 | 42 | 1018.4 |
| 20260901124558 | 80 | 312 | 13.0 | 28.7 | 0.00 | 0.23 | 0.11 | 44 | 1018.4 |
| 20260901123048 | 80 | 316 | 17.4 | 33.0 | 0.00 | 0.23 | 0.11 | 43 | 1018.4 |
| 20260901121645 | 79 | 290 | 12.2 | 29.5 | 0.00 | 0.23 | 0.11 | 46 | 1018.6 |
| 20260901120055 | 77 | 330 | 20.0 | 30.4 | 0.00 | 0.23 | 0.11 | 48 | 1018.7 |
| 20260901114542 | 77 | 349 | 15.6 | 29.5 | 0.00 | 0.23 | 0.11 | 48 | 1018.8 |
| 20260901113104 | 77 | 278 | 11.3 | 24.3 | 0.00 | 0.23 | 0.11 | 51 | 1018.9 |
| 20260901111536 | 76 | 326 | 10.4 | 29.5 | 0.00 | 0.23 | 0.11 | 51 | 1018.8 |
| 20260901110040 | 76 | 344 | 6.1 | 27.8 | 0.00 | 0.23 | 0.11 | 51 | 1018.9 |
| 20260901104534 | 75 | 312 | 11.3 | 29.5 | 0.00 | 0.23 | 0.11 | 52 | 1019.0 |
| 20260901103033 | 75 | 329 | 15.6 | 27.8 | 0.00 | 0.23 | 0.11 | 53 | 1019.1 |
| 20260901101544 | 75 | 338 | 13.9 | 26.9 | 0.00 | 0.23 | 0.11 | 54 | 1019.2 |
| 20260901100027 | 74 | 350 | 13.0 | 22.6 | 0.00 | 0.23 | 0.11 | 55 | 1019.2 |
| 20260901094527 | 74 | 315 | 13.0 | 26.9 | 0.00 | 0.23 | 0.11 | 55 | 1019.2 |
| 20260901093025 | 74 | 340 | 13.0 | 31.3 | 0.00 | 0.23 | 0.11 | 54 | 1019.2 |